[[{"header":{"parameterUnit":"m.s-1","parameterCategory":1,"la1":30.2991,"la2":30.254,"lo1":-89.0895,"lo2":-89.0444,"dy":0.0017,"dx":0.0017,"nx":28,"ny":28,"refTime":"2024-08-05T03:00:00:Z","depth":0,"parameterNumber":2,"parameterNumberName":"U-component_of_WINDS"},"data":[0,0,0,0,0,0,0,0,0,0,0,0,0,0,0,0,0,0,0,0,0,0,0,0,0,0,0,0,0,0,0,0,0,0,0,0,0,0,0,0,0,0,0,0,0,0,0,0,0,0,0,0,0,0,0,0,0,0,0.018,0.0181,0,0.0284,0.0286,0.0287,0.0304,0.0303,0.0302,0.0301,0.0412,0.0415,0.0419,0,0,0,0,0,0,0,0,0,0,0,0,0,-0.0001,0.0002,0.0179,0.0181,0.0182,0.0284,0.0286,0.0287,0.0304,0.0303,0.0302,0.0301,0.041,0.0415,0.0419,0,0,0,0,0,0,0,0,0,0,0,0,0,0.0088,0.0003,0.0179,0.0203,0.0206,0.0284,0.0286,0.0287,0.0304,0.0303,0.0302,0.03,0.0409,0.0414,0.042,0.0483,0,0,0.0437,0.044,0,0,0,0,0,0,0,0,0.0083,0.0094,0.0198,0.0201,0.0205,0.028,0.0262,0.0353,0.0305,0.0267,0.0301,0.03,0.0369,0.0378,0.0401,0.0488,0.0492,0.0438,0.0441,0.0444,0.0445,0,0,0,0,0,0,0,0.0077,0.009,0.0221,0.02,0.0204,0.021,0.0221,0.028,0.0325,0.027,0.0272,0.0284,0.0371,0.0395,0.0403,0.0494,0.0438,0.0443,0.0446,0.0448,0.0643,0.0644,0,0,0,0,0,0,0.0066,0.0085,0.0218,0.0224,0.0139,0.0214,0.0227,0.0257,0.0324,0.0333,0.0285,0.0284,0.0386,0.0397,0.0407,0.0489,0.0444,0.0449,0.0452,0.0641,0.0643,0.0645,0,0,0,0,0,0,0.0062,0.0077,0.0213,0.0155,0.0173,0.0219,0.0253,0.026,0.0284,0.0335,0.0343,0.0301,0.0385,0.0399,0.0465,0.0493,0.0452,0.0457,0.0639,0.0642,0.0644,0.0649,0,0,0,0,0,0,0.0056,0.0076,0.0099,0.0155,0.0176,0.0268,0.0254,0.0263,0.0294,0.0294,0.0353,0.0361,0.0385,0.0456,0.047,0.05,0.0461,0.0637,0.064,0.0643,0.0647,0.0652,0.0656,0,0,0,0,0,0.005,0.0096,0.01,0.0116,0.0205,0.0269,0.0281,0.0307,0.0296,0.0321,0.0354,0.0359,0.0486,0.0463,0.0479,0.051,0.0635,0.0639,0.0643,0.0645,0.0651,0.0656,0,0,0,0,0,0,0.0041,0.0103,0.0109,0.0174,0.0216,0.0272,0.0303,0.0312,0.0359,0.0357,0.0388,0.0402,0.0466,0.0494,0.0466,0.0577,0.056,0.0568,0.0556,0.0562,0.0567,0.056,0.0466,0,0,0,0,0,0.0047,0.0092,0.0144,0.0197,0.0218,0.0257,0.0286,0.0302,0.0348,0.0366,0.0404,0.0449,0.0499,0.0532,0.0581,0.065,0.0666,0.068,0.0685,0.0688,0.0695,0.0738,0.0747,0.0658,0.0658,0.0658,0,0,0.0059,0.0099,0.0125,0.0196,0.0231,0.028,0.0272,0.0322,0.036,0.0374,0.0439,0.0468,0.052,0.0589,0.0621,0.0615,0.0723,0.0693,0.0696,0.0701,0.0743,0.0752,0.0759,0.0661,0.066,0.066,0,0,0.0107,0.014,0.0189,0.0224,0.0277,0.0303,0.0315,0.037,0.0391,0.0456,0.0469,0.0514,0.0599,0.0637,0.0668,0.0733,0.0741,0.0748,0.0773,0.0814,0.0821,0.0828,0.0855,0.0864,0.0754,0.0754,0.0754,0,0.0116,0.0188,0.0213,0.0265,0.0297,0.0312,0.0364,0.0397,0.0464,0.0487,0.0478,0.0588,0.0624,0.0704,0.072,0.0743,0.076,0.0742,0.0818,0.0825,0.0831,0.0858,0.0867,0.0755,0.0754,0.0754,0.0754,0,0.0199,0.0249,0.0282,0.0347,0.0383,0.0434,0.0469,0.0503,0.0517,0.0545,0.0613,0.0657,0.0717,0.0737,0.075,0.082,0.0815,0.0811,0.0796,0.084,0.0866,0.0876,0.0756,0.0755,0.0755,0.0755,0,0,0.0244,0.0323,0.0335,0.0366,0.0427,0.0467,0.052,0.0579,0.0609,0.0654,0.0702,0.0775,0.0773,0.0808,0.0826,0.0863,0.0917,0.0856,0.0857,0.0869,0.1001,0.1006,0.1017,0.0921,0.0923,0.0925,0.0998,0,0.0302,0.0396,0.0422,0.0503,0.0552,0.0568,0.0615,0.0659,0.0686,0.0733,0.0764,0.0817,0.0809,0.0831,0.0867,0.0902,0.0944,0.0897,0.097,0.0972,0.0959,0.1029,0.1034,0.11,0.1008,0.1009,0.101,0,0.0382,0.043,0.0516,0.0573,0.0595,0.0636,0.0694,0.0738,0.0788,0.0806,0.0846,0.0862,0.0921,0.0901,0.0985,0.0952,0.0983,0.1005,0.1009,0.1019,0.0996,0.1045,0.1122,0.1133,0.1026,0.1024,0.1023,0,0.0411,0.0497,0.0561,0.0586,0.0654,0.0683,0.0713,0.0762,0.0797,0.0848,0.0871,0.0928,0.096,0.1004,0.1036,0.1018,0.1119,0.11,0.1139,0.1138,0.1161,0.116,0.1248,0.1175,0.1175,0.1175,0.1175,0,0.0475,0.0528,0.0576,0.0615,0.0676,0.0706,0.0766,0.0797,0.0841,0.0889,0.0905,0.095,0.0987,0.1038,0.1063,0.1131,0.1144,0.1163,0.117,0.1164,0.1162,0.1187,0.1185,0.1178,0.1177,0.1177,0.1176,0,0.0519,0.0552,0.0624,0.0682,0.0698,0.0741,0.0792,0.0833,0.0861,0.0922,0.0938,0.0984,0.1045,0.108,0.1156,0.1173,0.125,0.1253,0.1233,0.1237,0.1275,0.1273,0.1385,0.1403,0.1315,0.1315,0.1316,0,0.0559,0.0601,0.0664,0.0697,0.0727,0.0779,0.0816,0.0847,0.0884,0.0947,0.0981,0.1042,0.1094,0.1191,0.1232,0.1291,0.1298,0.1333,0.1307,0.1301,0.1304,0.1303,0.1309,0.1339,0.134,0.134,0.1341,0,0.0628,0.0643,0.0694,0.0751,0.0794,0.0841,0.0887,0.0914,0.0954,0.0995,0.1057,0.1097,0.1176,0.1239,0.1302,0.1335,0.1347,0.1348,0.1361,0.1357,0.1346,0.1357,0.125,0.1346,0.1346,0.1345,0.1345,0.1345,0.0674,0.0714,0.0765,0.0822,0.0861,0.0905,0.0947,0.0981,0.1034,0.11,0.1116,0.1183,0.1236,0.1322,0.1357,0.1411,0.1405,0.1423,0.1428,0.1433,0.1436,0.1334,0.1422,0.1422,0.1422,0.1422,0.1422,0,0.0748,0.0782,0.0834,0.09,0.0945,0.095,0.1003,0.1042,0.11,0.1148,0.1199,0.1272,0.1334,0.138,0.1444,0.1479,0.1486,0.1495,0.1495,0.1503,0.1435,0.142,0.1488,0.1488,0.1488,0.1488,0.1488,0.1488,0.0792,0.086,0.0881,0.097,0.1004,0.107,0.11,0.1142,0.1181,0.1263,0.1314,0.1343,0.1392,0.146,0.1518,0.153,0.1555,0.1564,0.1577,0.1514,0.1507,0.15,0.1486,0.1567,0.1568,0.1641,0.1642,0.1642]},{"header":{"parameterUnit":"m.s-1","parameterCategory":1,"la1":30.2991,"la2":30.254,"lo1":-89.0895,"lo2":-89.0444,"dy":0.0017,"dx":0.0017,"nx":28,"ny":28,"refTime":"2024-08-05T03:00:00:Z","depth":0,"parameterNumber":3,"parameterNumberName":"V-component_of_WINDS"},"data":[0,0,0,0,0,0,0,0,0,0,0,0,0,0,0,0,0,0,0,0,0,0,0,0,0,0,0,0,0,0,0,0,0,0,0,0,0,0,0,0,0,0,0,0,0,0,0,0,0,0,0,0,0,0,0,0,0,0,-2.341,-2.3409,0,-2.3371,-2.337,-2.337,-2.3412,-2.3413,-2.3415,-2.3417,-2.3375,-2.3372,-2.337,0,0,0,0,0,0,0,0,0,0,0,0,0,-2.3519,-2.3517,-2.341,-2.3409,-2.3409,-2.3371,-2.337,-2.337,-2.3412,-2.3414,-2.3415,-2.3417,-2.3376,-2.3373,-2.337,0,0,0,0,0,0,0,0,0,0,0,0,0,-2.3475,-2.3516,-2.341,-2.3425,-2.3426,-2.3371,-2.337,-2.337,-2.3411,-2.3414,-2.3416,-2.3418,-2.3377,-2.3373,-2.3369,-2.3297,0,0,-2.3357,-2.3355,0,0,0,0,0,0,0,0,-2.3477,-2.3471,-2.3423,-2.3424,-2.3425,-2.3399,-2.3394,-2.3345,-2.3411,-2.3417,-2.3417,-2.3419,-2.3381,-2.3377,-2.3364,-2.3295,-2.3293,-2.3357,-2.3354,-2.3353,-2.3352,0,0,0,0,0,0,0,-2.348,-2.3473,-2.3394,-2.3423,-2.3424,-2.3433,-2.343,-2.3385,-2.3386,-2.3416,-2.3419,-2.3414,-2.3382,-2.3368,-2.3363,-2.3292,-2.3357,-2.3353,-2.3351,-2.3349,-2.3161,-2.3158,0,0,0,0,0,0,-2.3482,-2.3475,-2.3396,-2.3393,-2.3458,-2.343,-2.3426,-2.3405,-2.3386,-2.3386,-2.3412,-2.3416,-2.3373,-2.3368,-2.3362,-2.3274,-2.3353,-2.3349,-2.3347,-2.3163,-2.316,-2.3157,0,0,0,0,0,0,-2.3484,-2.3474,-2.3397,-2.3435,-2.3426,-2.3425,-2.3401,-2.3403,-2.3389,-2.3383,-2.3383,-2.3398,-2.3375,-2.3368,-2.3312,-2.3274,-2.3347,-2.3344,-2.3166,-2.3162,-2.3159,-2.31,0,0,0,0,0,0,-2.3487,-2.3475,-2.3447,-2.3434,-2.3424,-2.3348,-2.3399,-2.34,-2.3382,-2.3387,-2.337,-2.3369,-2.3376,-2.3318,-2.3309,-2.327,-2.3341,-2.317,-2.3165,-2.316,-2.3105,-2.3094,-2.3085,0,0,0,0,0,-2.3491,-2.3432,-2.3446,-2.3436,-2.3389,-2.3346,-2.334,-2.335,-2.3379,-2.3351,-2.3347,-2.337,-2.328,-2.3312,-2.3302,-2.3261,-2.3172,-2.3166,-2.316,-2.3109,-2.3096,-2.3085,0,0,0,0,0,0,-2.344,-2.343,-2.3445,-2.3381,-2.3364,-2.3353,-2.3318,-2.3336,-2.331,-2.3315,-2.3329,-2.3324,-2.3265,-2.3258,-2.3294,-2.319,-2.3231,-2.3223,-2.3196,-2.3183,-2.3173,-2.3175,-2.3337,0,0,0,0,0,-2.3421,-2.3387,-2.3381,-2.3325,-2.3315,-2.3318,-2.33,-2.3309,-2.3292,-2.3284,-2.3277,-2.3259,-2.3227,-2.3205,-2.3175,-2.3105,-2.3101,-2.3072,-2.3062,-2.3054,-2.3046,-2.3007,-2.2994,-2.3138,-2.3138,-2.3138,0,0,-2.3382,-2.3373,-2.335,-2.3314,-2.3302,-2.3266,-2.3312,-2.3272,-2.3244,-2.3278,-2.3225,-2.3219,-2.32,-2.3137,-2.3109,-2.3129,-2.3006,-2.3046,-2.304,-2.3036,-2.2999,-2.2986,-2.2974,-2.3134,-2.3134,-2.3135,0,0,-2.3291,-2.3282,-2.3233,-2.3221,-2.3202,-2.3205,-2.3193,-2.318,-2.3177,-2.3125,-2.3149,-2.3118,-2.3062,-2.3047,-2.3032,-2.2938,-2.2957,-2.2928,-2.2874,-2.2836,-2.2825,-2.2815,-2.2779,-2.2767,-2.2921,-2.2921,-2.292,0,-2.3244,-2.3191,-2.3206,-2.3164,-2.3146,-2.3177,-2.3127,-2.3115,-2.3087,-2.3074,-2.3098,-2.3029,-2.3019,-2.2952,-2.2929,-2.2916,-2.2903,-2.2929,-2.2826,-2.2816,-2.2807,-2.2773,-2.2759,-2.2917,-2.2917,-2.2918,-2.2918,0,-2.3134,-2.3097,-2.306,-2.3033,-2.3012,-2.2966,-2.2973,-2.295,-2.2962,-2.2962,-2.2908,-2.2897,-2.2865,-2.2851,-2.2862,-2.2785,-2.2798,-2.2824,-2.2865,-2.2789,-2.2757,-2.2744,-2.2912,-2.2913,-2.2914,-2.2915,0,0,-2.3006,-2.299,-2.2976,-2.2964,-2.2947,-2.2918,-2.2874,-2.2844,-2.2823,-2.2804,-2.2766,-2.272,-2.2743,-2.2726,-2.2736,-2.2704,-2.2627,-2.2733,-2.2733,-2.2712,-2.2541,-2.2519,-2.2504,-2.2641,-2.2639,-2.2637,-2.2541,0,-2.2914,-2.2837,-2.285,-2.2775,-2.2741,-2.277,-2.2732,-2.2717,-2.2716,-2.2687,-2.2686,-2.2652,-2.2687,-2.2677,-2.2646,-2.2643,-2.2593,-2.2651,-2.2605,-2.2603,-2.2605,-2.2488,-2.2465,-2.2375,-2.2529,-2.2527,-2.2526,0,-2.2794,-2.2771,-2.2693,-2.2682,-2.2668,-2.2633,-2.2606,-2.2578,-2.2562,-2.2564,-2.2545,-2.2562,-2.2518,-2.2562,-2.2501,-2.254,-2.2522,-2.2518,-2.2515,-2.2508,-2.2557,-2.2475,-2.2346,-2.2332,-2.2507,-2.2508,-2.251,0,-2.2706,-2.2656,-2.2603,-2.2592,-2.2578,-2.2552,-2.2545,-2.2532,-2.2513,-2.249,-2.2477,-2.245,-2.2433,-2.2411,-2.2419,-2.2452,-2.2356,-2.2401,-2.2354,-2.2354,-2.233,-2.233,-2.2193,-2.2324,-2.2324,-2.2324,-2.2324,0,-2.2599,-2.2549,-2.2563,-2.2529,-2.2475,-2.2491,-2.2437,-2.2433,-2.2421,-2.2387,-2.2413,-2.238,-2.2395,-2.2364,-2.2371,-2.2317,-2.2311,-2.231,-2.2312,-2.2306,-2.2305,-2.2292,-2.2297,-2.2321,-2.2321,-2.2322,-2.2323,0,-2.2489,-2.2497,-2.244,-2.2432,-2.2429,-2.2389,-2.2382,-2.2351,-2.2354,-2.2311,-2.2302,-2.2305,-2.227,-2.2277,-2.2238,-2.2243,-2.2175,-2.2186,-2.218,-2.2182,-2.2133,-2.2137,-2.198,-2.196,-2.2106,-2.2105,-2.2104,0,-2.2419,-2.2381,-2.237,-2.235,-2.2341,-2.2308,-2.2289,-2.2304,-2.2283,-2.2262,-2.2233,-2.2201,-2.2175,-2.2117,-2.2115,-2.2086,-2.2095,-2.2042,-2.209,-2.2085,-2.2091,-2.2091,-2.2087,-2.2031,-2.2029,-2.2028,-2.2027,0,-2.2292,-2.2298,-2.227,-2.2243,-2.222,-2.2199,-2.2181,-2.2163,-2.2176,-2.2152,-2.2116,-2.2096,-2.2057,-2.2024,-2.1997,-2.1989,-2.2009,-2.2013,-2.2,-2.1991,-2.1988,-2.1987,-2.2151,-2.2015,-2.2016,-2.2017,-2.2018,-2.2018,-2.2198,-2.2166,-2.2153,-2.212,-2.2109,-2.2092,-2.2062,-2.2061,-2.2032,-2.2001,-2.2013,-2.1972,-2.1958,-2.1923,-2.1913,-2.1881,-2.19,-2.1882,-2.1877,-2.1872,-2.1864,-2.1997,-2.1876,-2.1877,-2.1877,-2.1877,-2.1878,0,-2.2069,-2.2063,-2.2034,-2.2008,-2.1983,-2.2007,-2.1988,-2.1965,-2.1929,-2.1915,-2.1889,-2.1848,-2.1817,-2.1814,-2.1784,-2.1758,-2.1767,-2.175,-2.175,-2.1748,-2.185,-2.1863,-2.1743,-2.1743,-2.1743,-2.1743,-2.1743,-2.1743,-2.2,-2.1946,-2.1951,-2.1892,-2.1887,-2.1847,-2.1834,-2.1818,-2.1807,-2.176,-2.1734,-2.1733,-2.1723,-2.1693,-2.1664,-2.1665,-2.1651,-2.163,-2.1633,-2.1727,-2.1741,-2.1753,-2.1765,-2.1627,-2.1627,-2.1533,-2.1532,-2.1531]}]]